Preview of NWS' New Version of Forecast
This preview is not operational and should not be used for support decisions.

Regional Weather Roundup (RWR)

Issued by National Weather Service (NWS)

                            
000
ASUS44 KMEG 191000
RWRTN 
TENNESSEE HOURLY STATE WEATHER ROUNDUP
NATIONAL WEATHER SERVICE MEMPHIS TN
500 AM CDT FRI APR 19 2019

TNZ002-004-019-021-049-052-054-088>092-191100-
WEST TENNESSEE
  
CITY           SKY/WX    TMP DP  RH WIND       PRES   REMARKS
MEMPHIS INTL   LGT RAIN  48  46  93 NW12G22   29.66R                  
NWS MEMPHIS      N/A     47 N/A N/A MISG        N/A                   
JACKSON        CLOUDY    47  46  97 NW13G22   29.61S                  
DYERSBURG      LGT RAIN  48  45  89 N10       29.66R                  
$$

TNZ008-025-027-028-033-062-065-066-191100-
NORTH MIDDLE TENNESSEE
  
CITY           SKY/WX    TMP DP  RH WIND       PRES   REMARKS
NASHVILLE      RAIN      58  55  90 NW9       29.48F FOG              
CLARKSVILLE    LGT RAIN  49  45  86 N13       29.54F FOG              
CROSSVILLE     LGT RAIN  58  57  97 VRB5      29.55S                  
$$

TNZ061-075-076-078-094-096-097-191100-
SOUTH MIDDLE TENNESSEE
  
CITY           SKY/WX    TMP DP  RH WIND       PRES   REMARKS
$$

TNZ017-018-042-046-047-191100-
NORTHEAST TENNESSEE
  
CITY           SKY/WX    TMP DP  RH WIND       PRES   REMARKS
TRI CITIES     CLOUDY    67  55  65 W3        29.62S                  
$$

TNZ012-013-036-069-073-074-191100-
CENTRAL EAST TENNESSEE
  
CITY           SKY/WX    TMP DP  RH WIND       PRES   REMARKS
KNOXVILLE      LGT RAIN  61  59  93 VRB3G18   29.52F                  
OAK RIDGE      LGT RAIN  62  59  90 CALM      29.55                   
$$

TNZ083-085-099-191100-
SOUTHEAST TENNESSEE
  
CITY           SKY/WX    TMP DP  RH WIND       PRES   REMARKS
CHATTANOOGA    LGT RAIN  62  60  93 E6        29.51F FOG              
$$

SKY/WX REPORTED AS FAIR MEANS FEW OR NO CLOUDS BELOW
12 THOUSAND FEET.